Location: Unspecified
(52.0000°N, 19.0000°E)
Time: 15:12:33
(UTC+00:00)

ISS - Visible Passes

Search period start: 23 September 2019 00:00
Search period end: 03 October 2019 00:00
Orbit: 411 x 421 km, 51.6° (Epoch: 23 September)

Date Brightness Start Highest point End Pass type
(mag) Time Alt. Az. Time Alt. Az. Time Alt. Az.
23 Sep -3.7 18:37:19 10° WSW 18:40:31 60° S 18:40:31 60° S visible
24 Sep -3.4 17:48:58 10° SW 17:52:10 46° SSE 17:54:02 21° E visible
24 Sep -1.6 19:25:27 10° W 19:26:55 24° W 19:26:55 24° W visible
25 Sep -3.9 18:36:58 10° W 18:40:18 81° S 18:40:21 81° SSE visible
26 Sep -3.8 17:48:29 10° WSW 17:51:48 71° SSE 17:53:43 23° E visible
26 Sep -1.5 19:25:11 10° W 19:26:36 23° W 19:26:36 23° W visible
27 Sep -3.9 18:36:40 10° W 18:39:54 83° WSW 18:39:54 83° WSW visible
28 Sep -3.9 17:48:08 10° W 17:51:29 86° S 17:53:12 26° E visible
28 Sep -1.3 19:24:52 10° W 19:26:05 20° W 19:26:05 20° W visible
29 Sep -3.8 16:59:36 10° WSW 17:02:56 80° S 17:06:16 10° E visible
29 Sep -3.6 18:36:20 10° W 18:39:21 66° WSW 18:39:21 66° WSW visible
30 Sep -3.8 17:47:47 10° W 17:51:07 82° S 17:52:36 30° ESE visible
30 Sep -1.0 19:24:35 10° W 19:25:29 17° W 19:25:29 17° W visible
01 Oct -3.8 16:59:13 10° W 17:02:33 86° S 17:05:52 10° E visible
01 Oct -3.0 18:35:57 10° W 18:38:45 44° SW 18:38:45 44° SW visible
02 Oct -3.6 17:47:22 10° W 17:50:40 62° SSW 17:52:01 31° SE visible
02 Oct -0.7 19:24:29 10° W 19:24:55 12° WSW 19:24:55 12° WSW visible
